Torna al catalogo

TITAN 3C TRANSTAGE DEB

AttivoMEO
NORAD 38703·DEBRIS·🇺🇸 United States

Lanciato Sep 26, 1968 da Cape Canaveral Space Force Station

Loading…

Prossimi Passaggi (prossime 24 ore)

TLE

AggiornatoSource: Space-Track

Epoca: Sep 13, 2026, 09:08 UTC

1 38703U 68081AD  26256.38106829 -.00000153  00000-0  00000-0 0  9992
2 38703   3.0829  77.4491 0239136  75.1561 287.9362  1.05420839 48399

Traccia TITAN 3C TRANSTAGE DEB in tempo reale con AllMySat

Download on the App Store